Iron Mountain, MI

8:04 AM CDT on September 19, 2017 (GMT -0500)
Ford

Weather History for KIMT - March, 2014

Change the Weather History Date:

Wednesday, March 19, 2014

  Actual Average Record
Temperature  
Mean Temperature 32 °F -  
Max Temperature 35 °F 40 °F 79 °F (2012)
Min Temperature 28 °F 18 °F -21 °F (1989)
Degree Days  
Heating Degree Days 34    
Moisture  
Dew Point 26 °F    
Average Humidity 83    
Maximum Humidity 93    
Minimum Humidity 74    
Precipitation  
Precipitation 0.00 in - - ()
Sea Level Pressure  
Sea Level Pressure 29.71 in    
Wind  
Wind Speed 7 mph (NNW)    
Max Wind Speed 20 mph    
Max Gust Speed 24 mph    
Visibility 4 miles    
Events Fog , Snow    
Averages and records for this station are not official NWS values.
T = Trace of Precipitation, MM = Missing Value Source: NWS Daily Summary

Daily Weather History Graph

Daily Weather History Graph

Search for Another Location

Airport or City:

Trip Planner

Search our weather history database for the weather conditions in past years. The results will help you decide how hot, cold, wet, or windy it might be!

Date:

Astronomy

Mar. 19, 2014 Rise Set
Actual Time 6:57 AM CDT 7:03 PM CDT
Civil Twilight 6:27 AM CDT 7:33 PM CDT
Nautical Twilight 5:52 AM CDT 8:08 PM CDT
Astronomical Twilight 5:17 AM CDT 8:44 PM CDT
Moon 10:33 PM CDT 8:13 AM CDT
Length of Visible Light 13h 05m
Length of Day
12h 06m
Waning Gibbous, 91% of the Moon is Illuminated
Mar 19
Waning Gibbous
Mar 23
Last Quarter
Mar 30
New
Apr 7
First Quarter
Apr 15
Full

Hourly Weather History & Observations

Time (CDT) Temp. Windchill Dew Point Humidity Pressure Visibility Wind Dir Wind Speed Gust Speed Precip Events Conditions
12:17 AM 28.4 °F 22.2 °F 24.8 °F 86% 29.83 in 10.0 mi ENE 5.8 mph - N/A   Overcast
12:54 AM 28.9 °F - 25.0 °F 85% 29.88 in 10.0 mi Calm Calm - N/A   Overcast
1:54 AM 28.9 °F 25.2 °F 25.0 °F 85% 29.83 in 8.0 mi East 3.5 mph - N/A   Overcast
2:54 AM 28.9 °F 23.9 °F 26.1 °F 89% 29.79 in 8.0 mi NNE 4.6 mph - N/A   Overcast
3:05 AM 28.4 °F 23.3 °F 26.6 °F 93% 29.74 in 8.0 mi NNE 4.6 mph - N/A   Overcast
3:54 AM 28.9 °F 25.2 °F 25.0 °F 85% 29.76 in 8.0 mi North 3.5 mph - N/A   Overcast
4:54 AM 28.9 °F 25.2 °F 25.0 °F 85% 29.74 in 9.0 mi ENE 3.5 mph - N/A   Overcast
5:15 AM 28.4 °F 23.3 °F 24.8 °F 86% 29.68 in 9.0 mi ENE 4.6 mph - N/A   Overcast
5:45 AM 28.4 °F 23.3 °F 24.8 °F 86% 29.68 in 8.0 mi NE 4.6 mph - N/A   Overcast
5:54 AM 28.9 °F 25.2 °F 25.0 °F 85% 29.73 in 5.0 mi North 3.5 mph - 0.00 in Snow Light Snow
6:01 AM 28.4 °F 24.6 °F 24.8 °F 86% 29.68 in 3.0 mi NNE 3.5 mph - 0.00 in Snow Light Snow
6:13 AM 28.4 °F 24.6 °F 24.8 °F 86% 29.67 in 2.0 mi NNE 3.5 mph - 0.00 in Snow Light Snow
6:21 AM 28.4 °F 23.3 °F 24.8 °F 86% 29.67 in 1.5 mi North 4.6 mph - 0.00 in Snow Light Snow
6:34 AM 28.4 °F 23.3 °F 24.8 °F 86% 29.67 in 1.2 mi North 4.6 mph - 0.00 in Snow Light Snow
6:54 AM 28.0 °F 20.8 °F 25.0 °F 88% 29.72 in 1.2 mi North 6.9 mph - 0.00 in Snow Light Snow
7:23 AM 28.4 °F 19.7 °F 24.8 °F 86% 29.67 in 0.8 mi North 9.2 mph - 0.00 in Snow Light Snow
7:38 AM 28.4 °F 21.2 °F 26.6 °F 93% 29.66 in 0.8 mi North 6.9 mph - 0.00 in Snow Light Snow
7:54 AM 28.0 °F 19.3 °F 25.0 °F 88% 29.71 in 1.0 mi North 9.2 mph - 0.00 in Snow Light Snow
8:08 AM 28.4 °F 20.4 °F 24.8 °F 86% 29.66 in 1.2 mi North 8.1 mph - 0.00 in Snow Light Snow
8:28 AM 28.4 °F 19.7 °F 26.6 °F 93% 29.66 in 0.5 mi North 9.2 mph - 0.00 in Fog , Snow Snow
8:54 AM 28.0 °F 19.3 °F 26.1 °F 92% 29.70 in 0.8 mi North 9.2 mph - 0.00 in Snow Light Snow
9:02 AM 28.4 °F 20.4 °F 26.6 °F 93% 29.66 in 1.0 mi North 8.1 mph - 0.00 in Snow Light Snow
9:35 AM 28.4 °F 21.2 °F 26.6 °F 93% 29.65 in 1.5 mi North 6.9 mph - 0.00 in Snow Light Snow
9:46 AM 30.2 °F 22.6 °F 26.6 °F 86% 29.64 in 2.0 mi North 8.1 mph - 0.00 in Snow Light Snow
9:54 AM 30.0 °F 21.7 °F 26.1 °F 85% 29.69 in 2.5 mi North 9.2 mph - 0.00 in Snow Light Snow
10:07 AM 30.2 °F 22.6 °F 26.6 °F 86% 29.64 in 3.0 mi North 8.1 mph - 0.00 in Snow Light Snow
10:54 AM 30.9 °F 23.5 °F 26.1 °F 82% 29.68 in 5.0 mi NNW 8.1 mph - 0.00 in   Haze
11:08 AM 30.2 °F 22.6 °F 26.6 °F 86% 29.63 in 2.0 mi NNW 8.1 mph - 0.00 in Snow Light Snow
11:30 AM 32.0 °F 24.2 °F 26.6 °F 80% 29.63 in 3.0 mi NNW 9.2 mph - 0.00 in   Haze
11:54 AM 33.1 °F 26.1 °F 27.0 °F 78% 29.67 in 2.5 mi North 8.1 mph - 0.00 in Snow Light Snow
12:09 PM 33.8 °F 27.7 °F 26.6 °F 75% 29.63 in 3.0 mi NNW 6.9 mph - 0.00 in Snow Light Snow
12:22 PM 33.8 °F 28.6 °F 28.4 °F 81% 29.63 in 5.0 mi NNW 5.8 mph - 0.00 in   Haze
12:54 PM 34.0 °F 26.0 °F 28.0 °F 79% 29.67 in 5.0 mi North 10.4 mph - 0.00 in   Haze
1:02 PM 33.8 °F 26.4 °F 28.4 °F 81% 29.62 in 4.0 mi NNW 9.2 mph - N/A   Haze
1:22 PM 35.6 °F 29.2 °F 28.4 °F 75% 29.62 in 2.5 mi North 8.1 mph - 0.00 in Snow Light Snow
1:42 PM 33.8 °F 25.8 °F 30.2 °F 87% 29.62 in 1.8 mi NW 10.4 mph - 0.00 in Snow Light Snow
1:50 PM 33.8 °F 25.8 °F 30.2 °F 87% 29.62 in 2.0 mi NW 10.4 mph - 0.00 in Snow Light Snow
1:54 PM 34.0 °F 26.6 °F 30.0 °F 85% 29.66 in 2.0 mi NW 9.2 mph - 0.00 in Snow Light Snow
2:08 PM 33.8 °F 25.8 °F 30.2 °F 87% 29.62 in 3.0 mi NNW 10.4 mph - 0.00 in Snow Light Snow
2:22 PM 35.6 °F 27.5 °F 28.4 °F 75% 29.62 in 7.0 mi NNW 11.5 mph - 0.00 in   Overcast
2:31 PM 33.8 °F 24.3 °F 28.4 °F 81% 29.62 in 7.0 mi NNW 13.8 mph - 0.00 in   Overcast
2:54 PM 35.1 °F 26.4 °F 28.0 °F 76% 29.67 in 10.0 mi NNW 12.7 mph - 0.00 in   Overcast
3:03 PM 35.6 °F 27.5 °F 28.4 °F 75% 29.63 in 10.0 mi NNW 11.5 mph 21.9 mph N/A   Overcast
3:54 PM 34.0 °F 24.2 °F 27.0 °F 75% 29.68 in 9.0 mi NNW 15.0 mph - 0.00 in   Overcast
4:54 PM 34.0 °F 23.0 °F 27.0 °F 75% 29.70 in 10.0 mi NW 18.4 mph - N/A   Overcast
5:54 PM 32.0 °F 21.2 °F 25.0 °F 75% 29.74 in 5.0 mi NW 16.1 mph - 0.00 in Snow Light Snow
6:21 PM 32.0 °F 22.5 °F 24.8 °F 75% 29.71 in 2.0 mi WNW 12.7 mph 21.9 mph 0.00 in Snow Light Snow
6:52 PM 30.2 °F 17.8 °F 24.8 °F 80% 29.72 in 1.2 mi WNW 19.6 mph 24.2 mph 0.00 in Snow Light Snow
6:54 PM 30.9 °F 19.8 °F 25.0 °F 79% 29.77 in 1.2 mi WNW 16.1 mph 24.2 mph 0.00 in Snow Light Snow
7:04 PM 30.2 °F 19.8 °F 24.8 °F 80% 29.73 in 2.0 mi WNW 13.8 mph - 0.00 in Snow Light Snow
7:15 PM 30.2 °F 20.2 °F 24.8 °F 80% 29.73 in 4.0 mi NW 12.7 mph - 0.00 in Snow Light Snow
7:26 PM 30.2 °F 19.8 °F 24.8 °F 80% 29.74 in 2.0 mi WNW 13.8 mph 19.6 mph 0.00 in Snow Light Snow
7:33 PM 30.2 °F 20.2 °F 26.6 °F 86% 29.74 in 1.5 mi WNW 12.7 mph - 0.00 in Snow Light Snow
7:48 PM 28.4 °F 17.0 °F 24.8 °F 86% 29.75 in 3.0 mi NW 15.0 mph - 0.00 in Snow Light Snow
7:49 PM 28.9 °F 18.2 °F 25.0 °F 85% 29.80 in 3.0 mi NW 13.8 mph - 0.00 in Snow Light Snow
8:16 PM 30.2 °F 20.2 °F 24.8 °F 80% 29.76 in 3.0 mi WNW 12.7 mph 20.7 mph 0.00 in Snow Light Snow
8:54 PM 28.9 °F 18.2 °F 21.9 °F 75% 29.81 in 9.0 mi WNW 13.8 mph 23.0 mph 0.00 in Snow Light Snow
9:40 PM 28.4 °F 19.7 °F 21.2 °F 74% 29.77 in 6.0 mi NW 9.2 mph - 0.00 in Snow Light Snow
9:54 PM 28.9 °F 19.2 °F 21.9 °F 75% 29.82 in 5.0 mi NW 11.5 mph - 0.00 in Snow Light Snow
10:16 PM 28.4 °F 18.5 °F 21.2 °F 74% 29.78 in 5.0 mi WNW 11.5 mph - 0.00 in Snow Light Snow
10:34 PM 28.4 °F 18.0 °F 21.2 °F 74% 29.78 in 9.0 mi WNW 12.7 mph 20.7 mph 0.00 in   Overcast
10:54 PM 28.9 °F 19.2 °F 21.9 °F 75% 29.83 in 10.0 mi WNW 11.5 mph - 0.00 in   Overcast
11:54 PM 28.9 °F 19.2 °F 21.9 °F 75% 29.84 in 10.0 mi NW 11.5 mph - N/A   Overcast